Weather History for Watsonville, CA

Change the Weather History Date:

Monday, January 23, 2012

  Actual Average Record
Temperature  
Mean Temperature 55 °F 51 °F  
Max Temperature 61 °F 62 °F 74 °F (2011)
Min Temperature 48 °F 40 °F 30 °F (2007)
Degree Days  
Heating Degree Days 10    
Month to date heating degree days 287  
Since 1 July heating degree days 1421  
Cooling Degree Days 0    
Month to date cooling degree days 0  
Year to date cooling degree days 0  
Growing Degree Days 4 (Base 50)    
Moisture  
Dew Point 49 °F    
Average Humidity 77    
Maximum Humidity 100    
Minimum Humidity 53    
Precipitation  
Precipitation 0.39 in - 3.40 in (2000)
Month to date precipitation 2.69  
Year to date precipitation 2.69  
Since 1 July precipitation 6.98  
Sea Level Pressure  
Sea Level Pressure 29.91 in    
Wind  
Wind Speed 10 mph (SW)    
Max Wind Speed 22 mph    
Max Gust Speed 31 mph    
Visibility 8 miles    
Events Rain    
T = Trace of Precipitation, MM = Missing Value Source: NWS Daily Summary

Daily Weather History Graph

Daily Weather History Graph

Search for Another Location

Airport:

Trip Planner

Search our weather history database for the weather conditions in past years. The results will help you decide how hot, cold, wet, or windy it might be!

Date:

Astronomy

Jan. 23, 2012 Rise Set
Actual Time 7:16 AM PST 5:22 PM PST
Civil Twilight 6:48 AM PST 5:50 PM PST
Nautical Twilight 6:16 AM PST 6:21 PM PST
Astronomical Twilight 5:45 AM PST 6:52 PM PST
Moon 7:16 AM PST (1/23) 6:13 PM PST (1/23)
Length of Visible Light 11h 01m
Length of Day
10h 06m
New Moon, 0% of the Moon is Illuminated
Jan 23
New Moon
Jan 30
First Quarter
Feb 7
Full
Feb 14
Last Quarter
Feb 21
New

Hourly Weather History & Observations

Time (PST) Temp. Dew Point Humidity Pressure Visibility Wind Dir Wind Speed Gust Speed Precip Events Conditions
12:53 AM 54.0 °F 46.9 °F 77% 29.86 in 10.0 mi ESE 10.4 mph - 0.03 in   Overcast
1:53 AM 54.0 °F 50.0 °F 86% 29.82 in 5.0 mi SE 16.1 mph 23.0 mph 0.07 in Rain Rain
2:20 AM 53.6 °F 51.8 °F 94% 29.81 in 5.0 mi SE 10.4 mph - 0.09 in Rain Rain
2:38 AM 53.6 °F 51.8 °F 94% 29.80 in 3.0 mi SE 10.4 mph 17.3 mph 0.12 in Rain Rain
2:48 AM 53.6 °F 51.8 °F 94% 29.81 in 2.0 mi South 11.5 mph 19.6 mph 0.16 in Rain Rain
2:53 AM 53.1 °F 53.1 °F 100% 29.81 in 2.0 mi SSE 12.7 mph 18.4 mph 0.17 in Rain Rain
3:11 AM 53.6 °F 53.6 °F 100% 29.81 in 3.0 mi SSE 11.5 mph - 0.06 in Rain Rain
4:38 AM 57.2 °F 53.6 °F 88% 29.78 in 7.0 mi SSW 17.3 mph 27.6 mph 0.00 in Rain Light Rain
5:49 AM 57.2 °F 53.6 °F 88% 29.80 in 4.0 mi SW 10.4 mph 24.2 mph 0.00 in Rain Light Rain
5:53 AM 57.0 °F 53.1 °F 87% 29.81 in 4.0 mi SW 12.7 mph 21.9 mph 0.00 in Rain Light Rain
6:03 AM 55.4 °F 53.6 °F 94% 29.81 in 3.0 mi SW 10.4 mph 23.0 mph 0.01 in Rain Light Rain
6:23 AM 57.2 °F 51.8 °F 82% 29.80 in 10.0 mi SW 16.1 mph 23.0 mph 0.01 in   Overcast
6:53 AM 55.9 °F 52.0 °F 87% 29.80 in 10.0 mi SW 16.1 mph 26.5 mph 0.01 in   Overcast
7:53 AM 55.9 °F 52.0 °F 87% 29.83 in 8.0 mi SW 13.8 mph 21.9 mph N/A   Overcast
8:09 AM 55.4 °F 51.8 °F 88% 29.83 in 4.0 mi SW 12.7 mph 20.7 mph 0.00 in Rain Light Rain
8:53 AM 55.0 °F 52.0 °F 89% 29.86 in 4.0 mi SW 15.0 mph 21.9 mph 0.00 in Rain Light Rain
9:19 AM 57.2 °F 51.8 °F 82% 29.87 in 10.0 mi WSW 15.0 mph 23.0 mph 0.01 in   Mostly Cloudy
9:53 AM 57.0 °F 52.0 °F 83% 29.89 in 10.0 mi SW 12.7 mph 23.0 mph 0.01 in   Clear
10:53 AM 59.0 °F 48.9 °F 69% 29.90 in 10.0 mi SW 13.8 mph - N/A   Partly Cloudy
11:53 AM 59.0 °F 48.9 °F 69% 29.90 in 10.0 mi SW 13.8 mph 23.0 mph N/A   Partly Cloudy
12:53 PM 60.1 °F 48.0 °F 64% 29.91 in 10.0 mi WSW 11.5 mph - 0.00 in   Overcast
1:53 PM 60.1 °F 45.0 °F 57% 29.93 in 10.0 mi West 8.1 mph 18.4 mph N/A   Mostly Cloudy
2:53 PM 59.0 °F 43.0 °F 55% 29.95 in 10.0 mi West 9.2 mph - N/A   Partly Cloudy
3:53 PM 59.0 °F 43.0 °F 55% 29.97 in 10.0 mi WSW 12.7 mph 20.7 mph N/A   Clear
4:53 PM 57.0 °F 43.0 °F 59% 30.00 in 10.0 mi West 8.1 mph - N/A   Partly Cloudy
5:53 PM 55.0 °F 43.0 °F 64% 30.02 in 10.0 mi Calm Calm - N/A   Partly Cloudy
6:53 PM 53.1 °F 44.1 °F 71% 30.05 in 10.0 mi Calm Calm - N/A   Overcast
7:53 PM 53.1 °F 44.1 °F 71% 30.06 in 10.0 mi WNW 3.5 mph - N/A   Mostly Cloudy
8:53 PM 52.0 °F 44.1 °F 74% 30.09 in 10.0 mi Calm Calm - N/A   Overcast
9:53 PM 51.1 °F 44.1 °F 77% 30.13 in 10.0 mi Calm Calm - N/A   Scattered Clouds
10:53 PM 48.9 °F 44.1 °F 83% 30.16 in 10.0 mi WNW 4.6 mph - N/A   Clear
11:53 PM 48.0 °F 43.0 °F 83% 30.17 in 10.0 mi NNW 3.5 mph - N/A   Clear